Time,TemperatureF,DewpointF,PressureIn,WindDirection,WindDirectionDegrees,WindSpeedMPH,WindSpeedGustMPH,Humidity,HourlyPrecipIn,Conditions,Clouds,dailyrainin,SoftwareType,DateUTC
2013-09-20 00:01:00,77.7,75.5,29.83,ESE,110,2.3,2.3,93,0.00,RA,,0.00,WeatherDisplay:10.37,2013-09-20 05:01:00,
2013-09-20 00:06:00,77.6,75.4,29.83,ESE,109,3.5,3.5,93,0.00,RA,,0.00,WeatherDisplay:10.37,2013-09-20 05:06:00,
2013-09-20 00:11:00,77.5,75.3,29.83,ESE,118,4.6,4.6,93,0.00,CLR,,0.00,WeatherDisplay:10.37,2013-09-20 05:11:00,
2013-09-20 00:16:00,77.4,75.2,29.83,East,101,1.0,1.0,93,0.00,CLR,,0.00,WeatherDisplay:10.37,2013-09-20 05:16:00,
2013-09-20 00:21:00,77.3,75.1,29.83,ESE,105,3.5,3.5,93,0.00,CLR,,0.00,WeatherDisplay:10.37,2013-09-20 05:21:00,
2013-09-20 00:26:00,77.3,75.1,29.83,ESE,121,3.5,3.5,93,0.00,CLR,,0.00,WeatherDisplay:10.37,2013-09-20 05:26:00,
2013-09-20 00:31:00,77.2,75.0,29.83,ESE,111,2.3,2.3,93,0.00,CLR,,0.00,WeatherDisplay:10.37,2013-09-20 05:31:00,
2013-09-20 00:39:00,77.1,74.9,29.83,ESE,105,2.3,0.0,93,0.00,CLR,,0.00,WeatherDisplay:10.37,2013-09-20 05:39:00,
2013-09-20 00:44:00,77.0,74.8,29.83,ESE,103,2.3,2.3,93,0.00,CLR,,0.00,WeatherDisplay:10.37,2013-09-20 05:44:00,
2013-09-20 00:49:00,77.0,74.8,29.83,ESE,110,2.3,2.3,93,0.00,CLR,,0.00,WeatherDisplay:10.37,2013-09-20 05:49:00,
2013-09-20 00:54:00,77.0,74.8,29.83,ESE,103,1.1,0.0,93,0.00,CLR,,0.00,WeatherDisplay:10.37,2013-09-20 05:54:00,
2013-09-20 00:59:00,77.0,74.8,29.83,ESE,109,0.0,0.0,93,0.00,CLR,,0.00,WeatherDisplay:10.37,2013-09-20 05:59:00,
2013-09-20 01:04:00,77.0,74.8,29.83,ESE,105,0.0,0.2,93,0.00,CLR,,0.00,WeatherDisplay:10.37,2013-09-20 06:04:00,
2013-09-20 01:09:00,77.0,74.8,29.83,ESE,113,0.0,0.0,93,0.00,CLR,,0.00,WeatherDisplay:10.37,2013-09-20 06:09:00,
2013-09-20 01:14:00,76.9,74.7,29.83,ESE,114,0.0,0.0,93,0.00,CLR,,0.00,WeatherDisplay:10.37,2013-09-20 06:14:00,
2013-09-20 01:19:00,76.8,74.9,29.83,East,96,0.0,0.0,94,0.00,CLR,,0.00,WeatherDisplay:10.37,2013-09-20 06:19:00,
2013-09-20 01:24:00,76.8,74.9,29.83,East,96,0.0,0.0,94,0.00,CLR,,0.00,WeatherDisplay:10.37,2013-09-20 06:24:00,
2013-09-20 01:29:00,76.8,74.9,29.83,East,89,0.0,0.0,94,0.00,CLR,,0.00,WeatherDisplay:10.37,2013-09-20 06:29:00,
2013-09-20 01:34:00,76.8,74.9,29.83,East,83,0.0,0.0,94,0.00,CLR,,0.00,WeatherDisplay:10.37,2013-09-20 06:34:00,
2013-09-20 01:39:00,76.7,74.8,29.82,East,86,0.0,0.0,94,0.00,CLR,,0.00,WeatherDisplay:10.37,2013-09-20 06:39:00,
2013-09-20 01:44:00,76.6,74.7,29.82,ESE,102,0.0,0.0,94,0.00,CLR,,0.00,WeatherDisplay:10.37,2013-09-20 06:44:00,
2013-09-20 01:49:00,76.5,74.6,29.82,ESE,115,0.0,0.0,94,0.00,CLR,,0.00,WeatherDisplay:10.37,2013-09-20 06:49:00,
2013-09-20 01:54:00,76.4,74.5,29.82,ESE,115,0.0,0.0,94,0.00,CLR,,0.00,WeatherDisplay:10.37,2013-09-20 06:54:00,
2013-09-20 01:59:00,76.3,74.4,29.82,ESE,115,0.0,0.0,94,0.00,CLR,,0.00,WeatherDisplay:10.37,2013-09-20 06:59:00,
2013-09-20 02:04:00,76.2,74.3,29.81,ESE,116,0.0,0.0,94,0.00,CLR,,0.00,WeatherDisplay:10.37,2013-09-20 07:04:00,
2013-09-20 02:09:00,76.1,74.2,29.81,ESE,116,0.0,0.0,94,0.00,CLR,,0.00,WeatherDisplay:10.37,2013-09-20 07:09:00,
2013-09-20 02:14:00,76.1,74.6,29.81,ESE,116,0.0,0.0,95,0.00,CLR,,0.00,WeatherDisplay:10.37,2013-09-20 07:14:00,
2013-09-20 02:19:00,76.0,74.5,29.81,East,79,0.0,0.0,95,0.00,CLR,,0.00,WeatherDisplay:10.37,2013-09-20 07:19:00,
2013-09-20 02:24:00,76.0,74.5,29.80,ENE,76,0.0,0.0,95,0.00,CLR,,0.00,WeatherDisplay:10.37,2013-09-20 07:24:00,
2013-09-20 02:29:00,76.0,74.5,29.80,East,81,0.0,0.0,95,0.00,CLR,,0.00,WeatherDisplay:10.37,2013-09-20 07:29:00,
2013-09-20 02:34:00,76.0,74.5,29.80,ENE,64,0.0,0.0,95,0.00,CLR,,0.00,WeatherDisplay:10.37,2013-09-20 07:34:00,
2013-09-20 02:39:00,75.9,74.4,29.80,East,79,0.0,0.0,95,0.00,CLR,,0.00,WeatherDisplay:10.37,2013-09-20 07:39:00,
2013-09-20 02:44:00,75.8,74.3,29.80,ENE,63,2.3,2.3,95,0.00,CLR,,0.00,WeatherDisplay:10.37,2013-09-20 07:44:00,
2013-09-20 02:49:00,75.7,74.2,29.80,ENE,77,1.1,0.0,95,0.00,CLR,,0.00,WeatherDisplay:10.37,2013-09-20 07:49:00,
2013-09-20 02:54:00,75.6,74.1,29.80,ENE,72,1.1,0.0,95,0.00,CLR,,0.00,WeatherDisplay:10.37,2013-09-20 07:54:00,
2013-09-20 02:59:00,75.5,74.0,29.80,NE,34,0.0,0.0,95,0.00,CLR,,0.00,WeatherDisplay:10.37,2013-09-20 07:59:00,
2013-09-20 03:04:00,75.5,74.0,29.80,ENE,59,0.0,0.0,95,0.00,CLR,,0.00,WeatherDisplay:10.37,2013-09-20 08:04:00,
2013-09-20 03:09:00,75.4,73.9,29.80,ENE,63,1.1,0.0,95,0.00,CLR,,0.00,WeatherDisplay:10.37,2013-09-20 08:09:00,
2013-09-20 03:14:00,75.4,73.9,29.80,ENE,76,0.0,0.0,95,0.00,CLR,,0.00,WeatherDisplay:10.37,2013-09-20 08:14:00,
2013-09-20 03:19:00,75.4,74.2,29.80,East,81,0.0,0.0,96,0.00,CLR,,0.00,WeatherDisplay:10.37,2013-09-20 08:19:00,
2013-09-20 03:24:00,75.4,73.9,29.80,ENE,60,0.0,0.0,95,0.00,CLR,,0.00,WeatherDisplay:10.37,2013-09-20 08:24:00,
2013-09-20 03:29:00,75.4,74.2,29.80,ENE,67,0.0,0.0,96,0.00,CLR,,0.00,WeatherDisplay:10.37,2013-09-20 08:29:00,
2013-09-20 03:34:00,75.5,74.3,29.80,NE,45,1.1,1.1,96,0.00,CLR,,0.00,WeatherDisplay:10.37,2013-09-20 08:34:00,
2013-09-20 03:39:00,75.5,74.3,29.80,ENE,75,2.3,2.3,96,0.00,CLR,,0.00,WeatherDisplay:10.37,2013-09-20 08:39:00,
2013-09-20 03:44:00,75.5,74.3,29.80,ENE,70,2.3,2.3,96,0.00,CLR,,0.00,WeatherDisplay:10.37,2013-09-20 08:44:00,
2013-09-20 03:49:00,75.5,74.3,29.79,ENE,75,2.3,2.3,96,0.00,CLR,,0.00,WeatherDisplay:10.37,2013-09-20 08:49:00,
2013-09-20 03:54:00,75.6,74.4,29.79,ENE,72,2.3,0.0,96,0.00,CLR,,0.00,WeatherDisplay:10.37,2013-09-20 08:54:00,
2013-09-20 03:59:00,75.7,74.5,29.79,ENE,75,1.1,1.1,96,0.00,CLR,,0.00,WeatherDisplay:10.37,2013-09-20 08:59:00,
2013-09-20 04:04:00,75.7,74.5,29.79,ENE,63,1.1,0.0,96,0.00,CLR,,0.00,WeatherDisplay:10.37,2013-09-20 09:04:00,
2013-09-20 04:09:00,75.7,74.5,29.79,ENE,70,1.1,0.0,96,0.00,CLR,,0.00,WeatherDisplay:10.37,2013-09-20 09:09:00,
2013-09-20 04:14:00,75.8,74.6,29.79,ENE,67,3.5,3.5,96,0.00,CLR,,0.00,WeatherDisplay:10.37,2013-09-20 09:14:00,
2013-09-20 04:19:00,75.8,74.6,29.78,ENE,74,2.0,2.0,96,0.00,CLR,,0.00,WeatherDisplay:10.37,2013-09-20 09:19:00,
2013-09-20 04:24:00,75.9,74.7,29.78,East,86,3.5,3.5,96,0.00,CLR,,0.00,WeatherDisplay:10.37,2013-09-20 09:24:00,
2013-09-20 04:29:00,75.9,74.7,29.78,East,94,3.5,3.5,96,0.00,CLR,,0.01,WeatherDisplay:10.37,2013-09-20 09:29:00,
2013-09-20 04:34:00,75.9,74.7,29.78,ENE,77,3.5,3.5,96,0.02,RA,,0.02,WeatherDisplay:10.37,2013-09-20 09:34:00,
2013-09-20 04:39:00,76.0,74.8,29.78,ENE,75,6.9,6.9,96,0.02,RA,,0.02,WeatherDisplay:10.37,2013-09-20 09:39:00,
2013-09-20 04:44:00,76.0,74.8,29.78,East,101,3.5,3.5,96,0.03,RA,,0.03,WeatherDisplay:10.37,2013-09-20 09:44:00,
2013-09-20 04:49:00,76.1,74.9,29.78,East,81,2.0,2.0,96,0.03,RA,,0.03,WeatherDisplay:10.37,2013-09-20 09:49:00,
2013-09-20 04:54:00,76.0,74.8,29.78,ENE,60,2.3,2.3,96,0.03,CLR,,0.03,WeatherDisplay:10.37,2013-09-20 09:54:00,
2013-09-20 04:59:00,76.1,74.9,29.78,East,85,3.5,3.5,96,0.03,CLR,,0.03,WeatherDisplay:10.37,2013-09-20 09:59:00,
2013-09-20 05:04:00,76.1,74.9,29.77,East,94,2.3,2.3,96,0.03,CLR,,0.03,WeatherDisplay:10.37,2013-09-20 10:04:00,
2013-09-20 05:09:00,76.1,74.9,29.78,ESE,108,1.1,1.1,96,0.03,CLR,,0.03,WeatherDisplay:10.37,2013-09-20 10:09:00,
2013-09-20 05:14:00,76.1,74.9,29.77,East,92,1.1,1.1,96,0.03,CLR,,0.03,WeatherDisplay:10.37,2013-09-20 10:14:00,
2013-09-20 05:19:00,76.1,74.9,29.78,ESE,120,2.3,2.3,96,0.03,CLR,,0.03,WeatherDisplay:10.37,2013-09-20 10:19:00,
2013-09-20 05:25:00,76.2,75.0,29.77,ESE,115,0.0,0.0,96,0.03,CLR,,0.03,WeatherDisplay:10.37,2013-09-20 10:25:00,
2013-09-20 05:30:00,76.2,75.0,29.78,East,98,0.0,0.0,96,0.02,CLR,,0.03,WeatherDisplay:10.37,2013-09-20 10:30:00,
2013-09-20 05:35:00,76.2,75.0,29.77,East,86,1.1,1.1,96,0.01,CLR,,0.03,WeatherDisplay:10.37,2013-09-20 10:35:00,
2013-09-20 05:40:00,76.2,75.0,29.77,East,91,0.0,0.0,96,0.01,CLR,,0.03,WeatherDisplay:10.37,2013-09-20 10:40:00,
2013-09-20 05:45:00,76.2,75.0,29.77,East,90,1.1,1.1,96,0.00,CLR,,0.03,WeatherDisplay:10.37,2013-09-20 10:45:00,
2013-09-20 05:50:00,76.2,75.0,29.77,East,96,1.1,1.1,96,0.00,CLR,,0.03,WeatherDisplay:10.37,2013-09-20 10:50:00,
2013-09-20 05:55:00,76.2,75.0,29.77,ESE,113,0.0,0.0,96,0.00,CLR,,0.03,WeatherDisplay:10.37,2013-09-20 10:55:00,
2013-09-20 06:00:00,76.2,75.0,29.77,ESE,103,2.3,2.3,96,0.00,CLR,,0.03,WeatherDisplay:10.37,2013-09-20 11:00:00,
2013-09-20 06:05:00,76.2,75.0,29.77,ESE,120,1.1,1.1,96,0.00,CLR,,0.03,WeatherDisplay:10.37,2013-09-20 11:05:00,
2013-09-20 06:10:00,76.2,75.0,29.77,ESE,103,3.5,3.5,96,0.00,CLR,,0.03,WeatherDisplay:10.37,2013-09-20 11:10:00,
2013-09-20 06:15:00,76.2,75.0,29.77,East,89,1.1,1.1,96,0.00,CLR,,0.03,WeatherDisplay:10.37,2013-09-20 11:15:00,
2013-09-20 06:20:00,76.2,75.0,29.76,ESE,105,1.1,1.1,96,0.00,CLR,,0.03,WeatherDisplay:10.37,2013-09-20 11:20:00,
2013-09-20 06:25:00,76.2,75.0,29.77,ESE,102,1.1,1.1,96,0.00,CLR,,0.03,WeatherDisplay:10.37,2013-09-20 11:25:00,
2013-09-20 06:30:00,76.1,74.9,29.77,East,101,0.0,0.0,96,0.00,CLR,,0.03,WeatherDisplay:10.37,2013-09-20 11:30:00,
2013-09-20 06:35:00,76.1,74.9,29.77,East,101,0.0,0.0,96,0.00,CLR,,0.03,WeatherDisplay:10.37,2013-09-20 11:35:00,
2013-09-20 06:40:00,76.1,74.9,29.76,East,86,1.1,0.0,96,0.00,CLR,,0.03,WeatherDisplay:10.37,2013-09-20 11:40:00,
2013-09-20 06:45:00,76.1,74.9,29.76,ENE,77,1.1,1.1,96,0.00,CLR,,0.03,WeatherDisplay:10.37,2013-09-20 11:45:00,
2013-09-20 06:50:00,76.1,74.9,29.76,East,92,1.1,0.0,96,0.00,CLR,,0.03,WeatherDisplay:10.37,2013-09-20 11:50:00,
2013-09-20 06:55:00,76.1,74.9,29.76,East,82,2.3,2.3,96,0.00,CLR,,0.03,WeatherDisplay:10.37,2013-09-20 11:55:00,
2013-09-20 07:00:00,76.1,74.9,29.76,East,98,1.1,1.1,96,0.01,RA,,0.04,WeatherDisplay:10.37,2013-09-20 12:00:00,
2013-09-20 07:05:00,76.1,74.9,29.76,East,90,2.3,2.3,96,0.01,RA,,0.04,WeatherDisplay:10.37,2013-09-20 12:05:00,
2013-09-20 07:10:00,76.1,74.9,29.76,East,86,0.0,0.0,96,0.01,,,0.04,WeatherDisplay:10.37,2013-09-20 12:10:00,
2013-09-20 07:15:00,76.1,74.9,29.76,East,98,0.0,0.0,96,0.01,CLR,,0.04,WeatherDisplay:10.37,2013-09-20 12:15:00,
2013-09-20 07:20:00,76.1,74.9,29.77,East,98,3.5,3.5,96,0.01,CLR,,0.04,WeatherDisplay:10.37,2013-09-20 12:20:00,
2013-09-20 07:25:00,76.2,75.0,29.77,East,97,2.3,2.3,96,0.01,CLR,,0.04,WeatherDisplay:10.37,2013-09-20 12:25:00,
2013-09-20 07:30:00,76.2,75.0,29.77,East,83,2.3,2.3,96,0.01,CLR,,0.04,WeatherDisplay:10.37,2013-09-20 12:30:00,
2013-09-20 07:35:00,76.2,75.0,29.77,East,79,3.5,3.5,96,0.01,CLR,,0.04,WeatherDisplay:10.37,2013-09-20 12:35:00,
2013-09-20 07:40:00,76.3,75.1,29.77,ESE,105,4.0,4.0,96,0.01,CLR,,0.04,WeatherDisplay:10.37,2013-09-20 12:40:00,
2013-09-20 07:45:00,76.3,75.1,29.77,East,96,3.5,3.5,96,0.01,CLR,,0.04,WeatherDisplay:10.37,2013-09-20 12:45:00,
2013-09-20 07:50:00,76.3,75.1,29.77,SE,134,3.5,3.5,96,0.01,CLR,,0.04,WeatherDisplay:10.37,2013-09-20 12:50:00,
2013-09-20 07:55:00,76.4,75.2,29.77,ESE,116,3.5,3.5,96,0.01,CLR,,0.04,WeatherDisplay:10.37,2013-09-20 12:55:00,
2013-09-20 08:00:00,76.6,75.4,29.77,SE,132,3.5,3.5,96,0.00,CLR,,0.04,WeatherDisplay:10.37,2013-09-20 13:00:00,
2013-09-20 08:05:00,76.6,75.4,29.78,SE,143,3.5,3.5,96,0.00,CLR,,0.04,WeatherDisplay:10.37,2013-09-20 13:05:00,
2013-09-20 08:10:00,76.7,75.5,29.78,SE,144,3.5,3.5,96,0.00,CLR,,0.04,WeatherDisplay:10.37,2013-09-20 13:10:00,
2013-09-20 08:15:00,76.8,75.6,29.78,SE,142,3.5,3.5,96,0.00,CLR,,0.04,WeatherDisplay:10.37,2013-09-20 13:15:00,
2013-09-20 08:20:00,76.8,75.6,29.78,ESE,122,1.1,1.1,96,0.00,CLR,,0.04,WeatherDisplay:10.37,2013-09-20 13:20:00,
2013-09-20 08:25:00,76.8,75.3,29.79,SE,146,3.5,3.5,95,0.00,CLR,,0.04,WeatherDisplay:10.37,2013-09-20 13:25:00,
2013-09-20 08:30:00,76.9,75.4,29.79,SE,130,3.5,3.5,95,0.00,CLR,,0.04,WeatherDisplay:10.37,2013-09-20 13:30:00,
2013-09-20 08:35:00,77.0,75.5,29.79,ESE,122,3.5,3.5,95,0.00,CLR,,0.04,WeatherDisplay:10.37,2013-09-20 13:35:00,
2013-09-20 08:40:00,77.1,75.6,29.79,ESE,118,4.6,4.6,95,0.00,CLR,,0.04,WeatherDisplay:10.37,2013-09-20 13:40:00,
2013-09-20 08:45:00,77.1,75.6,29.79,ESE,122,4.6,4.6,95,0.00,CLR,,0.04,WeatherDisplay:10.37,2013-09-20 13:45:00,
2013-09-20 08:50:00,77.2,75.7,29.79,ESE,114,4.6,4.6,95,0.00,CLR,,0.04,WeatherDisplay:10.37,2013-09-20 13:50:00,
2013-09-20 08:55:00,77.3,75.8,29.79,SE,145,4.6,4.6,95,0.00,CLR,,0.04,WeatherDisplay:10.37,2013-09-20 13:55:00,
2013-09-20 09:00:00,77.2,75.7,29.79,SE,146,5.8,5.8,95,0.00,CLR,,0.04,WeatherDisplay:10.37,2013-09-20 14:00:00,
2013-09-20 09:05:00,77.2,75.3,29.79,ESE,116,9.2,9.2,94,0.00,CLR,,0.04,WeatherDisplay:10.37,2013-09-20 14:05:00,
2013-09-20 09:11:00,77.2,75.7,29.79,SE,129,4.6,4.6,95,0.00,CLR,,0.04,WeatherDisplay:10.37,2013-09-20 14:11:00,
2013-09-20 09:16:00,77.2,75.3,29.79,ESE,122,6.9,6.9,94,0.00,CLR,,0.04,WeatherDisplay:10.37,2013-09-20 14:16:00,
2013-09-20 09:21:00,77.5,75.6,29.79,ESE,115,4.6,4.6,94,0.00,CLR,,0.04,WeatherDisplay:10.37,2013-09-20 14:21:00,
2013-09-20 09:26:00,77.7,75.8,29.79,SE,125,5.0,5.0,94,0.00,CLR,,0.04,WeatherDisplay:10.37,2013-09-20 14:26:00,
2013-09-20 09:31:00,77.8,75.9,29.79,SE,138,4.6,4.6,94,0.00,CLR,,0.04,WeatherDisplay:10.37,2013-09-20 14:31:00,
2013-09-20 09:36:00,78.0,76.1,29.79,SE,139,6.9,6.9,94,0.00,CLR,,0.04,WeatherDisplay:10.37,2013-09-20 14:36:00,
2013-09-20 09:41:00,78.0,75.8,29.79,SSE,148,6.0,6.0,93,0.00,CLR,,0.04,WeatherDisplay:10.37,2013-09-20 14:41:00,
2013-09-20 09:46:00,77.9,75.7,29.79,SSE,149,6.9,6.9,93,0.01,RA,,0.05,WeatherDisplay:10.37,2013-09-20 14:46:00,
2013-09-20 09:51:00,77.8,75.9,29.79,SSE,156,4.0,4.0,94,0.02,RA,,0.06,WeatherDisplay:10.37,2013-09-20 14:51:00,
2013-09-20 09:56:00,78.0,76.1,29.79,ESE,105,3.5,3.5,94,0.02,RA,,0.06,WeatherDisplay:10.37,2013-09-20 14:56:00,
2013-09-20 10:01:00,78.4,76.5,29.79,SE,142,3.5,3.5,94,0.02,CLR,,0.06,WeatherDisplay:10.37,2013-09-20 15:01:00,
2013-09-20 10:06:00,78.4,76.5,29.79,SE,132,4.6,4.6,94,0.02,CLR,,0.06,WeatherDisplay:10.37,2013-09-20 15:06:00,
2013-09-20 10:11:00,78.4,76.5,29.79,SSE,150,8.1,8.1,94,0.02,CLR,,0.06,WeatherDisplay:10.37,2013-09-20 15:11:00,
2013-09-20 10:16:00,78.2,76.0,29.79,SSE,150,4.6,4.6,93,0.02,CLR,,0.06,WeatherDisplay:10.37,2013-09-20 15:16:00,
2013-09-20 10:21:00,78.1,75.9,29.79,ESE,121,9.2,9.2,93,0.02,CLR,,0.06,WeatherDisplay:10.37,2013-09-20 15:21:00,
2013-09-20 10:26:00,78.1,75.9,29.78,South,170,7.0,7.0,93,0.02,CLR,,0.06,WeatherDisplay:10.37,2013-09-20 15:26:00,
2013-09-20 10:31:00,78.1,75.9,29.78,SSE,152,8.1,8.1,93,0.02,CLR,,0.06,WeatherDisplay:10.37,2013-09-20 15:31:00,
2013-09-20 10:36:00,78.2,76.0,29.78,SE,145,8.1,8.1,93,0.02,CLR,,0.06,WeatherDisplay:10.37,2013-09-20 15:36:00,
2013-09-20 10:41:00,78.2,76.0,29.78,South,179,9.2,9.2,93,0.02,CLR,,0.06,WeatherDisplay:10.37,2013-09-20 15:41:00,
2013-09-20 10:46:00,78.1,75.9,29.79,South,191,6.9,6.9,93,0.01,CLR,,0.06,WeatherDisplay:10.37,2013-09-20 15:46:00,
2013-09-20 10:51:00,78.0,75.8,29.79,South,170,9.2,9.2,93,0.00,CLR,,0.06,WeatherDisplay:10.37,2013-09-20 15:51:00,
2013-09-20 10:56:00,78.0,75.8,29.79,SSE,165,9.2,9.2,93,0.00,CLR,,0.06,WeatherDisplay:10.37,2013-09-20 15:56:00,
2013-09-20 11:01:00,77.5,75.3,29.79,SSE,163,10.4,10.4,93,0.01,RA,,0.07,WeatherDisplay:10.37,2013-09-20 16:01:00,
2013-09-20 11:06:00,77.2,75.3,29.79,SSE,150,9.2,9.2,94,0.04,RA,,0.10,WeatherDisplay:10.37,2013-09-20 16:06:00,
2013-09-20 11:11:00,77.2,75.3,29.79,SSW,195,4.0,4.0,94,0.07,RA,,0.13,WeatherDisplay:10.37,2013-09-20 16:11:00,
2013-09-20 11:16:00,77.3,75.4,29.79,South,186,3.5,3.5,94,0.07,RA,,0.13,WeatherDisplay:10.37,2013-09-20 16:16:00,
2013-09-20 11:21:00,77.5,75.6,29.79,SSW,202,5.8,5.8,94,0.07,CLR,,0.13,WeatherDisplay:10.37,2013-09-20 16:21:00,
2013-09-20 11:26:00,77.8,75.9,29.79,SSW,205,2.3,2.3,94,0.07,CLR,,0.13,WeatherDisplay:10.37,2013-09-20 16:26:00,
2013-09-20 11:31:00,78.2,76.3,29.78,SSW,204,3.5,3.5,94,0.07,CLR,,0.13,WeatherDisplay:10.37,2013-09-20 16:31:00,
2013-09-20 11:36:00,78.7,76.8,29.78,SW,236,3.5,3.5,94,0.07,CLR,,0.13,WeatherDisplay:10.37,2013-09-20 16:36:00,
2013-09-20 11:41:00,78.8,76.6,29.78,SW,215,5.8,5.8,93,0.07,CLR,,0.13,WeatherDisplay:10.37,2013-09-20 16:41:00,
2013-09-20 11:46:00,78.9,76.4,29.78,SW,222,10.4,10.4,92,0.07,CLR,,0.13,WeatherDisplay:10.37,2013-09-20 16:46:00,
2013-09-20 11:51:00,79.2,76.7,29.78,SW,218,6.9,6.9,92,0.07,CLR,,0.13,WeatherDisplay:10.37,2013-09-20 16:51:00,
2013-09-20 11:56:00,79.4,76.9,29.77,South,180,9.2,9.2,92,0.07,CLR,,0.13,WeatherDisplay:10.37,2013-09-20 16:56:00,
2013-09-20 12:01:00,79.6,76.7,29.77,SSE,160,9.2,9.2,91,0.06,CLR,,0.13,WeatherDisplay:10.37,2013-09-20 17:01:00,
2013-09-20 12:06:00,79.8,77.3,29.77,SSW,206,5.8,5.8,92,0.03,CLR,,0.13,WeatherDisplay:10.37,2013-09-20 17:06:00,
2013-09-20 12:11:00,79.9,77.4,29.77,South,179,5.8,5.8,92,0.00,CLR,,0.13,WeatherDisplay:10.37,2013-09-20 17:11:00,
2013-09-20 12:16:00,80.0,77.1,29.76,South,170,10.4,10.4,91,0.00,CLR,,0.13,WeatherDisplay:10.37,2013-09-20 17:16:00,
2013-09-20 12:21:00,80.2,77.3,29.76,SSW,204,6.9,6.9,91,0.00,CLR,,0.13,WeatherDisplay:10.37,2013-09-20 17:21:00,
2013-09-20 12:26:00,80.2,77.0,29.76,SSW,208,4.6,4.6,90,0.00,CLR,,0.13,WeatherDisplay:10.37,2013-09-20 17:26:00,
2013-09-20 12:31:00,80.3,77.4,29.76,SSW,210,3.5,3.5,91,0.00,CLR,,0.13,WeatherDisplay:10.37,2013-09-20 17:31:00,
2013-09-20 12:36:00,80.5,77.3,29.76,WSW,237,3.5,3.5,90,0.00,CLR,,0.13,WeatherDisplay:10.37,2013-09-20 17:36:00,
2013-09-20 12:41:00,80.5,77.3,29.76,WSW,249,5.0,5.0,90,0.00,CLR,,0.13,WeatherDisplay:10.37,2013-09-20 17:41:00,
2013-09-20 12:46:00,80.7,77.5,29.76,SW,219,3.5,3.5,90,0.00,CLR,,0.13,WeatherDisplay:10.37,2013-09-20 17:46:00,
2013-09-20 12:51:00,81.0,77.4,29.76,SSE,160,4.6,5.0,89,0.00,CLR,,0.13,WeatherDisplay:10.37,2013-09-20 17:51:00,
2013-09-20 12:56:00,81.2,77.6,29.76,SSW,201,6.9,6.9,89,0.00,CLR,,0.13,WeatherDisplay:10.37,2013-09-20 17:56:00,
2013-09-20 13:01:00,81.5,77.9,29.75,SW,218,5.0,5.0,89,0.00,CLR,,0.13,WeatherDisplay:10.37,2013-09-20 18:01:00,
2013-09-20 13:06:00,81.7,77.8,29.75,SW,231,8.1,8.1,88,0.00,CLR,,0.13,WeatherDisplay:10.37,2013-09-20 18:06:00,
2013-09-20 13:11:00,82.1,77.5,29.75,SW,215,8.1,8.1,86,0.00,CLR,,0.13,WeatherDisplay:10.37,2013-09-20 18:11:00,
2013-09-20 13:16:00,82.4,78.1,29.75,South,190,6.9,6.9,87,0.00,CLR,,0.13,WeatherDisplay:10.37,2013-09-20 18:16:00,
2013-09-20 13:21:00,82.6,77.6,29.75,WSW,245,6.9,6.9,85,0.00,CLR,,0.13,WeatherDisplay:10.37,2013-09-20 18:21:00,
2013-09-20 13:26:00,82.6,77.3,29.75,WSW,255,8.1,8.1,84,0.00,CLR,,0.13,WeatherDisplay:10.37,2013-09-20 18:26:00,
2013-09-20 13:31:00,82.7,77.4,29.75,SW,218,4.6,4.6,84,0.00,CLR,,0.13,WeatherDisplay:10.37,2013-09-20 18:31:00,
2013-09-20 13:36:00,83.0,77.7,29.74,SW,214,2.3,2.3,84,0.00,CLR,,0.13,WeatherDisplay:10.37,2013-09-20 18:36:00,
2013-09-20 13:41:00,83.4,77.3,29.74,SW,218,6.9,6.9,82,0.00,CLR,,0.13,WeatherDisplay:10.37,2013-09-20 18:41:00,
2013-09-20 13:46:00,83.3,77.2,29.73,South,172,3.5,4.1,82,0.00,CLR,,0.13,WeatherDisplay:10.37,2013-09-20 18:46:00,
2013-09-20 13:51:00,82.6,78.3,29.74,SE,132,9.2,9.2,87,0.00,CLR,,0.13,WeatherDisplay:10.37,2013-09-20 18:51:00,
2013-09-20 13:56:00,80.8,77.3,29.74,SW,217,10.4,10.4,89,0.08,RA,,0.24,WeatherDisplay:10.37,2013-09-20 18:56:00,
2013-09-20 14:01:00,79.2,76.0,29.74,West,268,1.1,1.1,90,0.23,RA,,0.37,WeatherDisplay:10.37,2013-09-20 19:01:00,
2013-09-20 14:07:00,78.3,75.8,29.74,NNW,333,1.1,1.1,92,0.42,RA,,0.55,WeatherDisplay:10.37,2013-09-20 19:07:00,
2013-09-20 14:12:00,77.6,75.4,29.74,ENE,68,0.0,0.0,93,0.70,RA,,0.83,WeatherDisplay:10.37,2013-09-20 19:12:00,
2013-09-20 14:17:00,77.0,75.1,29.73,ENE,75,4.6,4.6,94,0.84,RA,,0.97,WeatherDisplay:10.37,2013-09-20 19:17:00,
2013-09-20 14:22:00,76.5,75.0,29.73,South,180,1.1,1.1,95,0.84,RA,,0.97,WeatherDisplay:10.37,2013-09-20 19:22:00,
2013-09-20 14:27:00,76.5,75.0,29.73,SW,218,0.0,0.0,95,0.84,,,0.97,WeatherDisplay:10.37,2013-09-20 19:27:00,
2013-09-20 14:32:00,76.4,74.9,29.74,SW,218,4.6,4.6,95,0.90,RA,,1.03,WeatherDisplay:10.37,2013-09-20 19:32:00,
2013-09-20 14:37:00,76.5,75.3,29.74,SW,215,0.0,0.0,96,1.08,RA,,1.21,WeatherDisplay:10.37,2013-09-20 19:37:00,
2013-09-20 14:42:00,76.3,75.1,29.74,West,267,1.1,0.0,96,1.18,RA,,1.31,WeatherDisplay:10.37,2013-09-20 19:42:00,
2013-09-20 14:47:00,76.2,75.0,29.74,West,272,0.0,0.0,96,1.22,RA,,1.38,WeatherDisplay:10.37,2013-09-20 19:47:00,
2013-09-20 14:52:00,76.2,75.0,29.73,East,96,0.0,0.1,96,1.31,RA,,1.44,WeatherDisplay:10.37,2013-09-20 19:52:00,
2013-09-20 14:57:00,76.3,75.1,29.73,ESE,121,2.3,2.3,96,1.24,RA,,1.45,WeatherDisplay:10.37,2013-09-20 19:57:00,
2013-09-20 15:02:00,76.4,75.2,29.73,East,82,0.0,0.1,96,1.09,RA,,1.47,WeatherDisplay:10.37,2013-09-20 20:02:00,
2013-09-20 15:07:00,76.3,75.1,29.73,West,276,0.0,0.0,96,1.03,RA,,1.52,WeatherDisplay:10.37,2013-09-20 20:07:00,
2013-09-20 15:12:00,76.4,75.2,29.72,NE,43,3.5,3.5,96,0.83,RA,,1.66,WeatherDisplay:10.37,2013-09-20 20:12:00,
2013-09-20 15:17:00,76.3,75.1,29.72,NNE,25,0.0,0.0,96,0.70,RA,,1.67,WeatherDisplay:10.37,2013-09-20 20:17:00,
2013-09-20 15:22:00,76.5,75.3,29.72,North,352,0.0,0.0,96,0.70,RA,,1.67,WeatherDisplay:10.37,2013-09-20 20:22:00,
2013-09-20 15:27:00,76.6,75.4,29.74,NNW,339,0.0,0.0,96,0.71,RA,,1.68,WeatherDisplay:10.37,2013-09-20 20:27:00,
2013-09-20 15:32:00,76.4,75.2,29.74,WSW,255,3.5,3.5,96,0.65,RA,,1.68,WeatherDisplay:10.37,2013-09-20 20:32:00,
2013-09-20 15:37:00,76.3,75.1,29.73,NW,304,4.6,4.6,96,0.47,CLR,,1.68,WeatherDisplay:10.37,2013-09-20 20:37:00,
2013-09-20 15:42:00,76.4,75.2,29.73,North,352,3.5,3.5,96,0.37,CLR,,1.68,WeatherDisplay:10.37,2013-09-20 20:42:00,
2013-09-20 15:47:00,76.0,74.8,29.73,North,359,4.6,4.6,96,0.30,CLR,,1.68,WeatherDisplay:10.37,2013-09-20 20:47:00,
2013-09-20 15:52:00,75.6,74.4,29.73,NE,36,4.6,4.6,96,0.24,CLR,,1.68,WeatherDisplay:10.37,2013-09-20 20:52:00,
2013-09-20 15:57:00,75.3,74.1,29.73,North,6,4.6,4.6,96,0.23,CLR,,1.68,WeatherDisplay:10.37,2013-09-20 20:57:00,
2013-09-20 16:02:00,75.4,74.2,29.73,NW,304,5.8,5.8,96,0.21,CLR,,1.68,WeatherDisplay:10.37,2013-09-20 21:02:00,
2013-09-20 16:07:00,75.5,74.3,29.73,NW,304,3.5,3.5,96,0.16,CLR,,1.68,WeatherDisplay:10.37,2013-09-20 21:07:00,
2013-09-20 16:12:00,75.6,74.4,29.72,NNW,347,6.9,6.9,96,0.02,CLR,,1.68,WeatherDisplay:10.37,2013-09-20 21:12:00,
2013-09-20 16:17:00,75.7,74.5,29.72,NW,322,8.1,8.1,96,0.01,CLR,,1.68,WeatherDisplay:10.37,2013-09-20 21:17:00,
2013-09-20 16:22:00,75.7,74.5,29.72,NNW,330,4.6,4.6,96,0.01,CLR,,1.68,WeatherDisplay:10.37,2013-09-20 21:22:00,
2013-09-20 16:27:00,75.7,74.5,29.71,NW,304,6.9,6.9,96,0.00,CLR,,1.68,WeatherDisplay:10.37,2013-09-20 21:27:00,
2013-09-20 16:32:00,75.5,74.3,29.71,NNE,15,6.9,6.9,96,0.01,RA,,1.69,WeatherDisplay:10.37,2013-09-20 21:32:00,
2013-09-20 16:37:00,75.5,74.3,29.71,NW,316,6.9,6.9,96,0.02,RA,,1.70,WeatherDisplay:10.37,2013-09-20 21:37:00,
2013-09-20 16:42:00,75.6,74.4,29.71,NW,320,10.4,10.4,96,0.02,RA,,1.70,WeatherDisplay:10.37,2013-09-20 21:42:00,
2013-09-20 16:47:00,75.4,74.2,29.72,NNW,345,9.2,9.2,96,0.02,CLR,,1.70,WeatherDisplay:10.37,2013-09-20 21:47:00,
2013-09-20 16:52:00,75.0,73.8,29.72,North,1,11.5,11.5,96,0.02,CLR,,1.70,WeatherDisplay:10.37,2013-09-20 21:52:00,
2013-09-20 16:57:00,74.9,73.7,29.73,NE,36,8.1,8.1,96,0.02,CLR,,1.70,WeatherDisplay:10.37,2013-09-20 21:57:00,
2013-09-20 17:02:00,74.7,73.5,29.72,NW,326,10.4,10.4,96,0.02,CLR,,1.70,WeatherDisplay:10.37,2013-09-20 22:02:00,
2013-09-20 17:07:00,74.4,73.2,29.73,North,354,11.5,11.5,96,0.02,CLR,,1.70,WeatherDisplay:10.37,2013-09-20 22:07:00,
2013-09-20 17:12:00,74.4,73.2,29.73,NE,44,13.8,13.8,96,0.02,CLR,,1.70,WeatherDisplay:10.37,2013-09-20 22:12:00,
2013-09-20 17:17:00,74.4,73.2,29.73,NNW,338,11.5,11.5,96,0.02,CLR,,1.70,WeatherDisplay:10.37,2013-09-20 22:17:00,
2013-09-20 17:22:00,74.5,73.3,29.73,NNE,21,17.0,17.0,96,0.02,CLR,,1.70,WeatherDisplay:10.37,2013-09-20 22:22:00,
2013-09-20 17:27:00,74.6,73.4,29.74,NNE,19,10.4,10.4,96,0.02,CLR,,1.70,WeatherDisplay:10.37,2013-09-20 22:27:00,
2013-09-20 17:32:00,74.9,73.4,29.74,NE,51,8.1,8.1,95,0.01,CLR,,1.70,WeatherDisplay:10.37,2013-09-20 22:32:00,
2013-09-20 17:37:00,74.9,73.4,29.74,North,9,15.0,15.0,95,0.00,CLR,,1.70,WeatherDisplay:10.37,2013-09-20 22:37:00,
2013-09-20 17:42:00,74.9,73.1,29.74,North,4,12.7,12.7,94,0.00,CLR,,1.70,WeatherDisplay:10.37,2013-09-20 22:42:00,
2013-09-20 17:47:00,74.8,73.0,29.74,NNE,15,18.4,18.4,94,0.00,CLR,,1.70,WeatherDisplay:10.37,2013-09-20 22:47:00,
2013-09-20 17:52:00,74.8,73.0,29.74,North,5,4.6,4.6,94,0.00,CLR,,1.70,WeatherDisplay:10.37,2013-09-20 22:52:00,
2013-09-20 17:57:00,74.6,72.8,29.74,NNE,27,11.5,11.5,94,0.01,RA,,1.71,WeatherDisplay:10.37,2013-09-20 22:57:00,
2013-09-20 18:02:00,74.4,72.6,29.73,NW,307,13.8,13.8,94,0.01,RA,,1.71,WeatherDisplay:10.37,2013-09-20 23:02:00,
2013-09-20 18:07:00,74.3,72.5,29.74,North,6,11.5,11.5,94,0.02,RA,,1.72,WeatherDisplay:10.37,2013-09-20 23:07:00,
2013-09-20 18:12:00,74.3,72.5,29.74,NE,44,9.2,9.2,94,0.02,RA,,1.72,WeatherDisplay:10.37,2013-09-20 23:12:00,
2013-09-20 18:17:00,74.3,72.8,29.75,NNE,13,6.9,6.9,95,0.02,,,1.72,WeatherDisplay:10.37,2013-09-20 23:17:00,
2013-09-20 18:22:00,74.3,72.8,29.75,NE,48,8.1,8.1,95,0.03,RA,,1.73,WeatherDisplay:10.37,2013-09-20 23:22:00,
2013-09-20 18:27:00,74.4,72.9,29.75,NNW,339,8.1,8.1,95,0.03,RA,,1.73,WeatherDisplay:10.37,2013-09-20 23:27:00,
2013-09-20 18:32:00,74.4,72.9,29.76,NE,52,10.4,10.4,95,0.03,CLR,,1.73,WeatherDisplay:10.37,2013-09-20 23:32:00,
2013-09-20 18:37:00,74.3,72.8,29.75,NW,318,3.5,3.5,95,0.03,CLR,,1.73,WeatherDisplay:10.37,2013-09-20 23:37:00,
2013-09-20 18:42:00,74.2,72.4,29.75,North,358,12.7,12.7,94,0.03,CLR,,1.73,WeatherDisplay:10.37,2013-09-20 23:42:00,
2013-09-20 18:47:00,74.2,72.4,29.75,North,353,12.7,12.7,94,0.03,CLR,,1.73,WeatherDisplay:10.37,2013-09-20 23:47:00,
2013-09-20 18:52:00,74.0,72.2,29.75,NNE,19,10.4,10.4,94,0.03,CLR,,1.73,WeatherDisplay:10.37,2013-09-20 23:52:00,
2013-09-20 18:57:00,73.6,71.8,29.75,NNE,17,15.0,15.0,94,0.02,CLR,,1.73,WeatherDisplay:10.37,2013-09-20 23:57:00,
2013-09-20 19:02:00,73.4,71.6,29.75,North,8,15.0,15.0,94,0.02,CLR,,1.73,WeatherDisplay:10.37,2013-09-21 00:02:00,
2013-09-20 19:07:00,73.3,71.5,29.75,NNE,32,12.7,12.7,94,0.01,CLR,,1.73,WeatherDisplay:10.37,2013-09-21 00:07:00,
2013-09-20 19:12:00,73.2,71.4,29.75,NNW,334,12.7,12.7,94,0.01,CLR,,1.73,WeatherDisplay:10.37,2013-09-21 00:12:00,
2013-09-20 19:17:00,73.3,71.5,29.75,NE,44,16.1,16.1,94,0.01,CLR,,1.73,WeatherDisplay:10.37,2013-09-21 00:17:00,
2013-09-20 19:22:00,73.4,71.3,29.75,ENE,64,17.3,17.3,93,0.00,CLR,,1.73,WeatherDisplay:10.37,2013-09-21 00:22:00,
2013-09-20 19:27:00,73.4,71.3,29.75,NNE,25,15.0,15.0,93,0.00,CLR,,1.73,WeatherDisplay:10.37,2013-09-21 00:27:00,
2013-09-20 19:32:00,73.4,71.3,29.76,NNE,28,18.4,18.4,93,0.00,CLR,,1.73,WeatherDisplay:10.37,2013-09-21 00:32:00,
2013-09-20 19:37:00,73.4,71.3,29.76,North,349,16.1,16.1,93,0.00,CLR,,1.73,WeatherDisplay:10.37,2013-09-21 00:37:00,
2013-09-20 19:42:00,73.4,70.9,29.77,NNE,16,17.3,17.3,92,0.00,CLR,,1.73,WeatherDisplay:10.37,2013-09-21 00:42:00,
2013-09-20 19:47:00,73.3,70.8,29.77,NNE,30,17.3,17.3,92,0.00,CLR,,1.73,WeatherDisplay:10.37,2013-09-21 00:47:00,
2013-09-20 19:52:00,73.2,70.7,29.76,NE,36,13.8,13.8,92,0.00,CLR,,1.73,WeatherDisplay:10.37,2013-09-21 00:52:00,
2013-09-20 19:57:00,73.2,70.7,29.76,NNE,25,11.5,11.5,92,0.00,CLR,,1.73,WeatherDisplay:10.37,2013-09-21 00:57:00,
2013-09-20 20:02:00,73.1,70.6,29.77,NE,43,11.5,11.5,92,0.00,CLR,,1.73,WeatherDisplay:10.37,2013-09-21 01:02:00,
2013-09-20 20:07:00,73.1,70.6,29.76,NNE,12,11.5,11.5,92,0.00,CLR,,1.73,WeatherDisplay:10.37,2013-09-21 01:07:00,
2013-09-20 20:12:00,73.1,70.6,29.77,ENE,61,13.0,13.0,92,0.00,CLR,,1.73,WeatherDisplay:10.37,2013-09-21 01:12:00,
2013-09-20 20:17:00,73.0,70.5,29.77,NNE,20,16.1,16.1,92,0.00,CLR,,1.73,WeatherDisplay:10.37,2013-09-21 01:17:00,
2013-09-20 20:22:00,73.0,70.5,29.78,NNW,335,15.0,15.0,92,0.00,CLR,,1.73,WeatherDisplay:10.37,2013-09-21 01:22:00,
2013-09-20 20:27:00,73.0,70.5,29.78,North,357,11.5,11.5,92,0.00,CLR,,1.73,WeatherDisplay:10.37,2013-09-21 01:27:00,
2013-09-20 20:32:00,72.9,70.4,29.79,North,8,10.4,10.4,92,0.00,CLR,,1.73,WeatherDisplay:10.37,2013-09-21 01:32:00,
2013-09-20 20:37:00,73.0,70.2,29.79,ENE,61,11.5,11.5,91,0.00,CLR,,1.73,WeatherDisplay:10.37,2013-09-21 01:37:00,
2013-09-20 20:42:00,72.9,70.1,29.78,NNE,22,15.0,15.0,91,0.00,CLR,,1.73,WeatherDisplay:10.37,2013-09-21 01:42:00,
2013-09-20 20:47:00,72.7,70.2,29.78,NE,46,11.5,11.5,92,0.00,CLR,,1.73,WeatherDisplay:10.37,2013-09-21 01:47:00,
2013-09-20 20:52:00,72.7,70.2,29.78,North,4,15.0,15.0,92,0.00,CLR,,1.73,WeatherDisplay:10.37,2013-09-21 01:52:00,
2013-09-20 20:57:00,72.6,70.1,29.78,North,357,11.5,11.5,92,0.00,CLR,,1.73,WeatherDisplay:10.37,2013-09-21 01:57:00,
2013-09-20 21:02:00,72.3,70.2,29.79,NNE,12,13.8,13.8,93,0.01,RA,,1.74,WeatherDisplay:10.37,2013-09-21 02:02:00,
2013-09-20 21:08:00,72.2,70.1,29.79,North,353,9.0,9.0,93,0.01,RA,,1.74,WeatherDisplay:10.37,2013-09-21 02:08:00,
2013-09-20 21:13:00,72.1,70.0,29.79,North,9,12.7,12.7,93,0.01,,,1.74,WeatherDisplay:10.37,2013-09-21 02:13:00,
2013-09-20 21:18:00,72.1,70.0,29.79,NNW,330,11.5,11.5,93,0.01,CLR,,1.74,WeatherDisplay:10.37,2013-09-21 02:18:00,
2013-09-20 21:23:00,71.8,70.0,29.79,NE,48,16.1,16.1,94,0.04,RA,,1.77,WeatherDisplay:10.37,2013-09-21 02:23:00,
2013-09-20 21:28:00,71.6,69.8,29.78,ENE,71,13.8,13.8,94,0.06,RA,,1.79,WeatherDisplay:10.37,2013-09-21 02:28:00,
2013-09-20 21:33:00,71.5,69.7,29.78,ENE,78,15.0,15.0,94,0.06,RA,,1.79,WeatherDisplay:10.37,2013-09-21 02:33:00,
2013-09-20 21:38:00,71.4,69.9,29.79,NNW,339,11.5,11.5,95,0.06,,,1.79,WeatherDisplay:10.37,2013-09-21 02:38:00,
2013-09-20 21:43:00,71.5,70.0,29.79,NNE,27,9.2,9.2,95,0.06,CLR,,1.79,WeatherDisplay:10.37,2013-09-21 02:43:00,
2013-09-20 21:48:00,71.5,69.7,29.79,NNE,17,15.0,15.0,94,0.06,CLR,,1.79,WeatherDisplay:10.37,2013-09-21 02:48:00,
2013-09-20 21:53:00,71.6,69.8,29.80,NNW,346,6.9,6.9,94,0.06,CLR,,1.79,WeatherDisplay:10.37,2013-09-21 02:53:00,
2013-09-20 21:58:00,71.6,69.8,29.80,NW,325,9.2,9.2,94,0.06,CLR,,1.79,WeatherDisplay:10.37,2013-09-21 02:58:00,
2013-09-20 22:03:00,71.7,69.9,29.80,North,354,10.4,10.4,94,0.05,CLR,,1.79,WeatherDisplay:10.37,2013-09-21 03:03:00,
2013-09-20 22:08:00,71.8,70.0,29.80,NNW,333,11.5,11.5,94,0.05,CLR,,1.79,WeatherDisplay:10.37,2013-09-21 03:08:00,
2013-09-20 22:13:00,71.8,70.0,29.79,NNE,19,12.7,12.7,94,0.05,CLR,,1.79,WeatherDisplay:10.37,2013-09-21 03:13:00,
2013-09-20 22:18:00,71.9,70.1,29.80,NNE,30,5.8,5.8,94,0.05,CLR,,1.79,WeatherDisplay:10.37,2013-09-21 03:18:00,
2013-09-20 22:23:00,71.9,70.1,29.80,North,349,11.5,11.5,94,0.02,CLR,,1.79,WeatherDisplay:10.37,2013-09-21 03:23:00,
2013-09-20 22:28:00,72.0,70.2,29.79,NE,52,11.0,11.0,94,0.00,CLR,,1.79,WeatherDisplay:10.37,2013-09-21 03:28:00,
2013-09-20 22:33:00,72.0,70.2,29.79,NW,319,10.4,10.4,94,0.00,CLR,,1.79,WeatherDisplay:10.37,2013-09-21 03:33:00,
2013-09-20 22:38:00,71.9,70.1,29.79,NNE,19,6.9,6.9,94,0.00,CLR,,1.79,WeatherDisplay:10.37,2013-09-21 03:38:00,
2013-09-20 22:43:00,71.9,70.1,29.80,NW,323,8.1,8.1,94,0.00,CLR,,1.79,WeatherDisplay:10.37,2013-09-21 03:43:00,
2013-09-20 22:48:00,71.8,70.0,29.80,NNW,348,9.0,9.0,94,0.00,CLR,,1.79,WeatherDisplay:10.37,2013-09-21 03:48:00,
2013-09-20 22:53:00,71.8,70.0,29.80,NNE,30,6.9,6.9,94,0.00,CLR,,1.79,WeatherDisplay:10.37,2013-09-21 03:53:00,
2013-09-20 22:58:00,71.8,70.0,29.80,NNE,22,5.8,5.8,94,0.00,CLR,,1.79,WeatherDisplay:10.37,2013-09-21 03:58:00,
2013-09-20 23:01:00,71.8,70.0,29.80,NNE,19,10.4,10.4,94,0.00,CLR,,1.79,WeatherDisplay:10.37,2013-09-21 04:01:00,
2013-09-20 23:06:00,71.9,70.1,29.80,NNW,332,11.5,11.5,94,0.00,CLR,,1.79,WeatherDisplay:10.37,2013-09-21 04:06:00,
2013-09-20 23:11:00,71.9,70.1,29.80,NNW,338,5.8,5.8,94,0.00,CLR,,1.79,WeatherDisplay:10.37,2013-09-21 04:11:00,
2013-09-20 23:16:00,71.8,70.0,29.80,North,353,9.2,9.2,94,0.00,CLR,,1.79,WeatherDisplay:10.37,2013-09-21 04:16:00,
2013-09-20 23:21:00,71.8,70.0,29.81,ENE,58,6.9,6.9,94,0.00,CLR,,1.79,WeatherDisplay:10.37,2013-09-21 04:21:00,
2013-09-20 23:26:00,71.7,69.9,29.80,NNE,13,11.5,11.5,94,0.00,CLR,,1.79,WeatherDisplay:10.37,2013-09-21 04:26:00,
2013-09-20 23:31:00,71.7,69.9,29.80,North,5,13.8,13.8,94,0.00,CLR,,1.79,WeatherDisplay:10.37,2013-09-21 04:31:00,
2013-09-20 23:36:00,71.7,69.9,29.80,NNE,27,8.1,8.1,94,0.00,CLR,,1.79,WeatherDisplay:10.37,2013-09-21 04:36:00,
2013-09-20 23:41:00,71.6,69.8,29.80,North,360,9.2,9.2,94,0.00,CLR,,1.79,WeatherDisplay:10.37,2013-09-21 04:41:00,
2013-09-20 23:46:00,71.6,69.8,29.80,NW,322,9.2,9.2,94,0.00,CLR,,1.79,WeatherDisplay:10.37,2013-09-21 04:46:00,
2013-09-20 23:51:00,71.5,69.7,29.80,North,351,10.4,10.4,94,0.00,CLR,,1.79,WeatherDisplay:10.37,2013-09-21 04:51:00,
2013-09-20 23:56:00,71.6,69.8,29.80,North,4,8.1,8.1,94,0.00,CLR,,1.79,WeatherDisplay:10.37,2013-09-21 04:56:00,